Regional Weather Roundup
Issued by NWS

Home | Current Version | Previous Version | Text Only | Print | Product List | Glossary On
Versions: 1 2 3 4 5 6 7 8 9 10 11 12 13 14 15 16 17 18 19 20 21 22 23 24 25 26 27 28 29 30 31 32 33 34 35 36 37 38 39 40 41 42 43 44 45 46 47 48 49
000
ASPQ40 PGUM 191412
RWRPQ
WEATHER ROUNDUP FOR THE MARIANAS AND MICRONESIA
NATIONAL WEATHER SERVICE TIYAN GU
1200 AM CHST SAT SEP 20 2014

GUZ001>004-191500-
MARIANA ISLANDS-

CITY           SKY/WX    TMP DP  RH WIND       PRES   REMARKS
GUAM AIRPORT   PTCLDY    81  75  83 NE5       29.86F
ANDERSEN AFB   PTCLDY    81  77  89 NE10      29.86F
ROTA AIRPORT   NOT AVBL
TINIAN AP      NOT AVBL
SAIPAN AP      CLEAR     81  77  89 NE5       29.85F

$$

PMZ161-191500-
REPUBLIC OF PALAU-

CITY           SKY/WX    TMP DP  RH WIND       PRES   REMARKS
KOROR AP       CLOUDY    77  73  88 NW12G18   29.93F
KOROR WSO      CLOUDY    79  77  94 N14       29.92F

$$

PMZ171>174-191500-
FEDERATED STATES OF MICRONESIA-

CITY           SKY/WX    TMP DP  RH WIND       PRES   REMARKS
YAP AIRPORT    MOCLDY    82  77  83 VRB6      29.87F HX  91
CHUUK AP       CLOUDY    79  77  94 VRB3      29.80F
POHNPEI AP     NOT AVBL
POHNPEI WSO    MOCLDY    77  75  94 SE5       29.84F
KOSRAE AP      NOT AVBL

$$

PMZ181-191500-
REPUBLIC OF THE MARSHALL ISLANDS-

CITY           SKY/WX    TMP DP  RH WIND       PRES   REMARKS
KWAJALEIN AP   CLEAR     82  75  78 E7        29.79F
MAJURO AP      NOT AVBL
MAJURO WSO     MOCLDY    82  77  83 VRB5      29.77F HX  91

$$



USA.gov is the U.S. government's official web portal to all federal, state and local government web resources and services.